Location: Bergian-Sup�rieur
(44.0833°N, 6.9667°E)
Time: 23:50:57
(UTC+00:00)

Daily predictions for brighter satellites

Satellite Brightness Start Highest point End
(mag) Time Altitude Azimuth Time Altitude Azimuth Time Altitude Azimuth
Cosmos 2026 Rocket 4.3 16:21:38 10° N 16:27:26 42° ENE 16:33:08 10° SE
CZ-4B R/B 2.8 16:24:35 10° SSE 16:28:37 73° ENE 16:32:28 10° N
Cosmos 2322 Rocket 4.0 16:28:05 10° NNE 16:29:23 11° NE 16:30:41 10° NE
Cosmos 1933 3.6 16:25:40 10° SSE 16:29:33 47° E 16:33:27 10° NNE
Cosmos 1743 Rocket 3.5 16:25:19 10° N 16:29:37 67° E 16:33:56 10° SSE
Cosmos 1697 Rocket 2.7 16:25:40 10° NNW 16:31:17 67° ENE 16:36:52 10° SE
Okean O Rocket 3.2 16:33:11 10° E 16:35:50 16° ENE 16:38:29 10° NNE
Cosmos 1980 Rocket 2.6 16:30:39 10° NNW 16:35:59 40° ENE 16:41:14 10° SE
SL-08 R/B 3.7 16:31:35 10° N 16:36:16 67° WNW 16:40:51 10° SSW
Cosmos 540 Rocket 3.5 16:31:59 10° S 16:36:58 59° ESE 16:42:00 10° NNE
FengYun 1-2 T 4.2 16:31:33 10° SSE 16:37:07 72° ENE 16:42:38 10° N
Cosmos 2369 3.8 16:34:47 10° NNW 16:40:25 53° ENE 16:46:00 10° SE
SJ 16-02 4.4 16:37:33 10° NW 16:40:34 18° W 16:43:34 10° SW
Meteor PRIRODA 4.1 16:41:18 10° S 16:44:55 65° WSW 16:48:32 10° NNW
Cosmos 1812 3.8 16:41:45 10° SSE 16:44:57 25° E 16:48:10 10° NNE
Cosmos 1809 Rocket 4.4 16:38:56 10° N 16:44:59 63° E 16:51:00 10° SSE
NOAA 12 4.3 16:40:18 10° SSE 16:45:38 82° WSW 16:50:59 10° NNW
SL-16 R/B 3.6 16:44:42 10° N 16:48:25 17° NE 16:51:23 12° E
CORIOLIS 4.1 16:43:48 10° SSE 16:49:08 65° ENE 16:54:32 10° N
Cosmos 2082 Rocket 2.4 16:45:20 10° S 16:50:49 53° ESE 16:56:20 10° NE
Meteor 1-25 Rocket 4.3 16:50:53 10° NNW 16:56:29 83° W 17:02:06 10° S
Cosmos 1500 Rocket 4.3 16:53:21 10° NNW 16:57:42 56° W 17:01:59 10° S
USA 306 4.4 16:58:05 10° NW 17:01:25 22° N 17:03:34 15° NE
CZ-4B DEB 4.1 16:56:30 10° SSE 17:01:59 72° ENE 17:07:29 10° N
MOS 1-B Rocket 4.3 16:56:49 10° NNE 17:02:39 50° E 17:09:18 10° S
Cosmos 1898 Rocket 4.1 16:58:07 10° NNW 17:03:18 62° WSW 17:08:24 10° S
Cosmos 1939 Rocket 3.2 16:59:39 10° S 17:03:45 70° WSW 17:07:50 10° NNW
Cosmos 2278 3.9 16:58:33 10° NNW 17:04:04 47° ENE 17:09:32 10° SE
Cosmos 1602 3.9 17:00:58 10° NNW 17:04:50 76° W 17:08:41 10° S
Cosmos 1818 4.3 16:59:56 10° NNW 17:04:51 32° NE 17:08:58 13° ESE
Sich 1 2.9 17:00:42 10° N 17:05:01 79° E 17:09:20 10° SSE
CZ-2C R/B 3.7 17:03:20 10° S 17:05:05 12° SSE 17:06:47 10° SE
ARGOS 3.7 17:00:39 10° SE 17:05:29 35° ENE 17:10:19 10° N
Cosmos 1805 Rocket 3.8 17:05:20 10° NNW 17:09:40 72° W 17:13:58 10° S
Cosmos 1833 Rocket 3.4 17:05:18 10° SW 17:10:47 53° WNW 17:16:18 10° NNE
COSMOS 2406 3.7 17:08:57 10° SW 17:14:39 64° WNW 17:20:21 10° NNE
deb Chang Zheng 4 3.9 17:12:44 10° SE 17:16:47 42° ENE 17:20:53 10° N
NOSS 2-2 (C) 4.4 17:12:12 10° NW 17:17:32 84° NE 17:25:06 10° SE
USA 307 4.3 17:17:20 10° NW 17:20:45 23° N 17:21:59 20° NE
USA 267 3.6 17:16:33 15° NE 17:22:02 59° NNW 17:28:24 10° WSW
Cosmos 1782 3.2 17:18:11 10° SSW 17:22:08 63° W 17:26:06 10° N
Cosmos 2208 Rocket 4.2 17:20:23 10° S 17:25:35 52° ESE 17:29:27 18° NE
Cosmos 1515 Rocket 4.4 17:23:02 10° SSE 17:26:49 28° E 17:26:52 28° E
CZ-2C R/B 2.6 17:22:34 10° NNE 17:27:41 56° E 17:32:44 10° S
SL-08 RB Rocket 4.3 17:23:39 10° SE 17:27:51 34° ENE 17:32:00 10° N
CZ-2D R/B 3.3 17:24:22 10° S 17:28:11 79° WSW 17:32:02 10° NNW
Cosmos 1500 3.7 17:25:50 10° NNW 17:29:31 58° W 17:33:09 10° S
Meteor 2-6 Rocket 4.3 17:25:16 10° S 17:30:54 58° E 17:36:23 10° NNE
H-2A R/B 2.0 17:26:12 10° SSE 17:31:22 89° WSW 17:36:27 10° NNW
CZ-4C R/B 2.9 17:24:31 10° NW 17:31:49 74° NE 17:40:18 10° SE
CZ-4B R/B 3.0 17:27:24 10° SSE 17:32:47 71° ENE 17:38:07 10° N
Meteor 2-16 Rocket 4.3 17:26:46 10° N 17:32:55 78° E 17:39:03 10° SSE
PAYLOAD B 4.4 17:29:01 10° SSE 17:34:37 79° WSW 17:40:15 10° NNW
Cosmos 841 Rocket 4.1 17:29:53 10° SW 17:34:57 56° WNW 17:40:02 10° NNE
USA 308 4.2 17:39:57 10° NW 17:43:30 25° NNE 17:43:39 25° NNE
Cosmos 921 Rocket 3.0 17:40:50 10° S 17:44:52 51° ESE 17:45:22 48° ENE
Lacrosse 5 rocket 1.8 17:41:12 10° NW 17:44:49 40° NNE 17:44:49 40° NNE
COSMO-SKYMED 1 2.4 17:41:39 17° NNE 17:44:58 83° ESE 17:49:18 10° SSW
Cosmos 1125 Rocket 3.8 17:41:25 10° N 17:46:25 43° ENE 17:47:31 38° E
COSMOS 2455 3.5 17:41:44 10° SW 17:47:37 52° NW 17:52:29 15° NNE
Cosmos 2279 Rocket 4.1 17:43:01 10° S 17:49:13 79° W 17:55:27 10° N
Meteor 2-15 Rocket 4.5 17:45:21 10° SSE 17:51:16 53° E 17:55:53 17° NNE
ATLAS 2AS CENTAUR R/B 4.5 17:47:19 10° NNW 17:51:53 17° N 17:54:01 15° NNE
Cosmos 1633 Rocket 3.2 17:47:42 10° NNW 17:52:04 73° W 17:56:27 10° S
ISS -3.4 17:49:17 10° WNW 17:52:39 61° SW 17:53:03 55° S
Cosmos 2360 Rocket 3.6 17:49:26 10° N 17:52:12 21° NNE 17:52:12 21° NNE
Cosmos 44 Rocket 3.2 17:50:01 10° NNW 17:54:55 65° NE 17:56:04 48° ESE
Cosmos 2266 Rocket 4.0 17:48:39 10° N 17:55:00 62° E 18:01:20 10° SSE
USA 234 3.6 17:48:34 10° SE 17:55:04 66° SW 18:01:35 10° NW
Meteor 1-10 Rocket 4.1 17:50:49 10° S 17:56:34 69° E 18:00:37 20° NNE
Meteor 1-11 Rocket 3.7 17:53:14 10° N 17:58:46 56° ENE 18:04:23 10° SSE
Cosmos 1666 3.6 17:55:11 10° NNW 17:58:46 47° W 18:02:20 10° SSW
Cosmos 1151 Rocket 4.0 17:56:04 10° SSW 18:00:15 48° WNW 18:04:29 10° N
USA 305 4.3 18:05:56 10° NW 18:08:40 27° N 18:08:40 27° N
Okean O Rocket 2.1 18:07:18 10° S 18:11:41 60° W 18:16:07 10° NNW
X-37B 3.3 18:09:38 10° SSW 18:10:00 12° SSW 18:10:00 12° SSW
Feng Yun 1-1 Rocket 4.2 18:06:53 10° SSE 18:12:48 82° ENE 18:18:41 10° NNW
Meteor 2-15 4.4 18:07:48 10° S 18:13:56 81° W 18:20:04 10° N
Cosmos 2322 Rocket 2.6 18:09:20 10° NNW 18:13:54 45° NNE 18:13:54 45° NNE
Landsat 5 3.8 18:16:56 55° NW 18:17:27 61° WNW 18:21:21 10° SSW
Cosmos 1980 Rocket 3.9 18:14:52 10° NW 18:19:52 33° WSW 18:24:48 10° SSW
Spot 2 4.3 18:16:48 10° SSE 18:21:56 84° ENE 18:27:06 10° NNW
Cosmos 1470 Rocket 4.1 18:17:47 10° NNW 18:22:11 60° W 18:26:35 10° S
SL-16 R/B 2.0 18:27:38 10° NNW 18:33:20 89° NE 18:33:20 89° NE
Cosmos 2082 Rocket 4.0 18:30:27 10° WSW 18:35:13 27° NW 18:38:46 15° N
Cosmos 1655 Rocket 4.4 18:30:07 10° NNW 18:36:26 63° W 18:42:40 10° S
Cosmos 2298 Rocket 4.4 18:31:23 10° NNW 18:36:40 64° WSW 18:38:49 35° S
ATLAS CENTAUR R/B 4.1 18:32:03 10° W 18:37:08 22° NW 18:37:45 21° NNW
DMSP B5D2-2 4.4 18:42:38 61° SW 18:42:38 61° SW 18:46:57 10° SSW
CZ-2C R/B 3.8 18:40:41 10° SW 18:42:01 16° SSW 18:42:01 16° SSW
Cosmos 2333 Rocket 4.3 18:41:44 10° N 18:42:44 14° N 18:42:44 14° N
Cosmos 1818 4.4 18:43:22 10° NW 18:48:37 48° WSW 18:49:43 42° SSW
GEOS 3 Rocket 4.4 18:54:52 44° NW 18:54:52 44° NW 18:58:23 10° NW
Meteor 1-27 Rocket 4.4 18:57:05 10° SSW 19:01:42 50° WSW 19:01:42 50° WSW
USA 267 4.4 19:03:55 31° N 19:04:17 31° NNW 19:09:52 10° WNW
Cosmos 2360 Rocket 4.5 19:32:49 10° NNW 19:33:59 16° NW 19:33:59 16° NW
